This demonstration page uses our WeatherBlox Daily Observations layout. Learn more.

38.89511, -77.03637

Hourly Observations for January 11, 2015

Temp ( °F °C ) Dew Point ( °F °C ) Humidity (%) Winds ( mph kmh ) Pressure ( in mb ) Visibility ( mi km ) Precip ( " mm )
12:52 am 00:52 Partly Cloudy 25 -4 7 -14 46 46 Calm 30.62 1037 10 16.09344 0 0
1:52 am 01:52 Mostly Cloudy 25 -4 7 -14 46 46 NE 3 6 30.62 1037 10 16.09344 0 0
2:52 am 02:52 Mostly Cloudy 23 -5 9 -13 54 54 Calm 30.65 1038 10 16.09344 0 0
3:52 am 03:52 Cloudy 23 -5 9 -13 54 54 Calm 30.65 1038 10 16.09344 0 0
4:52 am 04:52 Cloudy 21 -6 12 -11 68 68 NE 3 6 30.65 1038 10 16.09344 0 0
5:52 am 05:52 Cloudy 21 -6 12 -11 68 68 ENE 5 7 30.65 1038 10 16.09344 0 0
6:52 am 06:52 Mostly Cloudy 21 -6 12 -11 68 68 Calm 30.65 1038 10 16.09344 0 0
7:52 am 07:52 Mostly Cloudy 21 -6 12 -11 68 68 ENE 5 7 30.65 1038 10 16.09344 0 0
8:52 am 08:52 Mostly Cloudy 27 -3 16 -9 64 64 S 8 13 30.68 1039 10 16.09344 0 0
9:52 am 09:52 Mostly Sunny 28 -2 16 -9 59 59 S 7 11 30.68 1039 10 16.09344 0 0
10:52 am 10:52 Partly Cloudy 34 1 16 -9 48 48 S 9 15 30.68 1039 10 16.09344 0 0
11:52 am 11:52 Mostly Cloudy 36 2 14 -10 41 41 SSE 7 11 30.62 1037 10 16.09344 0 0
12:52 pm 12:52 Mostly Cloudy 39 4 14 -10 36 36 SSE 8 13 30.59 1036 10 16.09344 0 0
1:52 pm 13:52 Mostly Cloudy 43 6 10 -12 26 26 S 7 11 30.56 1035 10 16.09344 0 0
2:52 pm 14:52 Mostly Cloudy 43 6 12 -11 29 29 S 7 11 30.56 1035 10 16.09344 0 0
3:52 pm 15:52 Cloudy 41 5 16 -9 36 36 S 6 9 30.56 1035 10 16.09344 0 0
4:52 pm 16:52 Cloudy 39 4 16 -9 39 39 S 6 9 30.56 1035 10 16.09344 0 0
5:52 pm 17:52 Cloudy 37 3 19 -7 48 48 S 3 6 30.56 1035 10 16.09344 0 0
6:52 pm 18:52 Cloudy 39 4 16 -9 39 39 S 3 6 30.59 1036 10 16.09344 0 0
7:52 pm 19:52 Cloudy 37 3 19 -7 48 48 SSW 5 7 30.59 1036 10 16.09344 0 0
8:52 pm 20:52 Cloudy 37 3 18 -8 45 45 S 7 11 30.56 1035 10 16.09344 0 0
9:52 pm 21:52 Cloudy 37 3 19 -7 48 48 S 6 9 30.56 1035 10 16.09344 0 0
10:27 pm 22:27 Cloudy with Light Rain 37 3 21 -6 52 52 S 6 9 30.56 1035 10 16.09344 0.001 0.001
10:52 pm 22:52 Cloudy with Light Rain 37 3 23 -5 56 56 S 6 9 30.53 1034 10 16.09344 0.001 0.001
11:52 pm 23:52 Cloudy with Light Rain 37 3 25 -4 60 60 S 6 9 30.5 1033 10 16.09344 0.001 0.001

Powered by AerisWeather